User: anonymous   Login
Location: Montreal
(45.5087°N, 73.5540°W)
Time: 00:58:00
(UTC-04:00)
Language:

AAUSAT CUBESAT 2 - Orbit

View from above orbital plane
View from above orbital plane
View from above satellite
View from above satellite

Ground track
Ground track

The orbit data is extracted from the following two-line orbital elements,

1 32788U 08021F   19295.03106761  .00000427  00000-0  44156-4 0  9996
2 32788  97.4950 305.2101 0012850 134.6197 225.6075 14.94825557623641
Epoch (UTC): 22 October 2019 00:44:44
Eccentricity: 0.0012850
inclination: 97.4950°
perigee height: 574 km
apogee height: 592 km
right ascension of ascending node: 305.2101°
argument of perigee: 134.6197°
revolutions per day: 14.94825557
mean anomaly at epoch: 225.6075°
orbit number at epoch: 62364

The dashed part of the orbit path shows where the satellite is in the earth's shadow,  

DLR